This demonstration page uses our WeatherBlox Daily Observations layout. Learn more.

Left ArrowRight Arrow

41.12389, -100.76542

Hourly Observations for August 22, 2019

Temp ( °F °C ) Dew Point ( °F °C ) Humidity (%) Winds ( mph kmh ) Pressure ( in mb ) Visibility ( mi km ) Precip ( " mm )
12:26 am 00:26 Partly Cloudy 62 16.7 61 16.1 96 96 SSE 5 7 30.03 1017 10 16 0.00 0.00
12:34 am 00:34 Mostly Cloudy 64 17.8 62 16.7 93 93 SE 10 17 30.02 1017 10 16 0.00 0.00
12:53 am 00:53 Cloudy 66 18.9 63 17.2 90 90 SSE 9 15 30.04 1017 10 16 0.00 0.00
1:32 am 01:32 Cloudy 66 18.9 63 17.2 90 90 SSE 5 7 30.00 1016 10 16 0.00 0.00
1:53 am 01:53 Cloudy 66 18.9 64 17.8 93 93 SE 5 7 30.02 1017 10 16 0.00 0.00
2:26 am 02:26 Cloudy 66 18.9 64 17.8 93 93 SE 3 6 29.97 1015 10 16 0.00 0.00
2:53 am 02:53 Cloudy 66 18.9 64 17.8 93 93 SSE 5 7 29.99 1016 10 16 0.00 0.00
3:15 am 03:15 Cloudy 67 19.4 64 17.8 91 91 S 5 7 29.97 1015 10 16 0.00 0.00
3:53 am 03:53 Cloudy 67 19.4 64 17.8 91 91 ESE 5 7 29.99 1016 10 16 0.00 0.00
4:16 am 04:16 Cloudy 66 18.9 64 17.8 93 93 ESE 5 7 29.96 1015 10 16 0.00 0.00
4:53 am 04:53 Cloudy 66 18.9 64 17.8 93 93 SE 6 9 29.98 1015 10 16 0.00 0.00
5:21 am 05:21 Cloudy 66 18.9 64 17.8 93 93 ESE 7 11 29.94 1014 9 14 0.00 0.00
5:53 am 05:53 Cloudy with Mist and Fog 65 18.3 64 17.8 97 97 SE 6 9 29.97 1015 3 4 0.00 0.00
6:05 am 06:05 Cloudy with Light Rain 65 18.3 64 17.8 97 97 SE 8 13 29.96 1014 2 2 0.00 0.00
6:16 am 06:16 Cloudy with Light Rain 65 18.3 64 17.8 97 97 SE 7 11 29.96 1014 1 2 0.01 0.25
6:24 am 06:24 Cloudy with Light Rain 65 18.3 64 17.8 97 97 SE 8 13 29.95 1014 2 3 0.01 0.25
6:31 am 06:31 Cloudy with Light Rain 65 18.3 64 17.8 97 97 SE 8 13 29.95 1014 2 3 0.01 0.25
6:41 am 06:41 Cloudy with Mist and Fog 65 18.3 64 17.8 97 97 ESE 10 17 29.94 1014 2 3 0.01 0.25
6:49 am 06:49 Cloudy with Mist and Fog 64 18 64 18 100 100 SE 9 15 29.94 1014 2 3 0.01 0.25
6:53 am 06:53 Cloudy with Mist and Fog 65 18.3 64 17.8 97 97 SE 9 15 29.96 1015 1 2 0.01 0.25
7:14 am 07:14 Mostly Cloudy with Fog 65 18.3 64 17.8 97 97 SSE 10 17 29.95 1014 1 1 0.00 0.00
7:31 am 07:31 Mostly Cloudy with Mist and Fog 65 18.3 64 17.8 97 97 SSE 7 11 29.95 1014 1 2 0.00 0.00
7:53 am 07:53 Cloudy with Mist and Fog 65 18.3 64 17.8 97 97 SSE 7 11 29.97 1015 1 2 0.00 0.00
8:02 am 08:02 Cloudy with Mist and Fog 65 18.3 64 17.8 97 97 SSE 8 13 29.94 1014 2 3 0.00 0.00
8:13 am 08:13 Cloudy with Mist and Fog 65 18.3 64 17.8 97 97 SSE 10 17 29.93 1013 4 6 0.00 0.00
8:34 am 08:34 Cloudy with Mist and Fog 66 18.9 64 17.8 93 93 SSE 16 26 29.91 1013 2 3 0.00 0.00
8:53 am 08:53 Cloudy with Light Rain 66 18.9 65 18.3 96 96 SE 16 26 29.93 1014 3 5 0.00 0.00
9:53 am 09:53 Cloudy 65 18.3 63 17.2 93 93 SSE 9 15 29.95 1014 10 16 0.00 0.00
10:21 am 10:21 Cloudy 66 18.9 64 17.8 93 93 SSE 8 13 29.91 1013 10 16 0.00 0.00
10:44 am 10:44 Cloudy with Light Rain 66 18.9 63 17.2 90 90 SE 7 11 29.93 1014 10 16 0.00 0.00
10:53 am 10:53 Cloudy 66 18.9 63 17.2 90 90 ESE 5 7 29.98 1015 10 16 0.00 0.00
11:32 am 11:32 Cloudy 68 20 64 17.8 87 87 E 3 6 29.91 1013 10 16 0.00 0.00
11:53 am 11:53 Cloudy 68 20 64 17.8 87 87 E 6 9 29.98 1015 10 16 0.00 0.00
12:32 pm 12:32 Cloudy 68 20 64 17.8 87 87 SE 6 9 29.92 1013 10 16 0.00 0.00
12:53 pm 12:53 Cloudy 69 20.6 65 18.3 87 87 SE 9 15 29.96 1015 10 16 0.00 0.00
1:02 pm 13:02 Cloudy 70 21.1 65 18.3 84 84 SE 10 17 29.90 1013 10 16 0.00 0.00
1:40 pm 13:40 Partly Cloudy 74 23.3 66 18.9 76 76 SSE 16 26 29.87 1011 10 16 0.00 0.00
1:53 pm 13:53 Mostly Cloudy with Light Rain 75 23.9 67 19.4 76 76 SSE 10 17 29.94 1014 10 16 0.00 0.00
2:53 pm 14:53 Cloudy 75 23.9 66 18.9 74 74 S 13 20 29.92 1013 10 16 0.00 0.00
3:21 pm 15:21 Mostly Cloudy 77 25 67 19.4 71 71 SSE 14 22 29.82 1010 10 16 0.00 0.00
3:33 pm 15:33 Mostly Cloudy 76 24.4 67 19.4 74 74 SE 14 22 29.82 1010 10 16 0.00 0.00
3:53 pm 15:53 Mostly Cloudy 75 23.9 66 18.9 74 74 SSE 14 22 29.90 1013 10 16 0.00 0.00
4:33 pm 16:33 Mostly Cloudy 76 24.4 67 19.4 74 74 SE 14 22 29.81 1009 10 16 0.00 0.00
4:45 pm 16:45 Mostly Cloudy 77 25 67 19.4 71 71 SE 16 26 29.79 1009 10 16 0.00 0.00
4:53 pm 16:53 Mostly Cloudy 76 24.4 68 20 77 77 SE 14 22 29.88 1012 10 16 0.00 0.00
5:20 pm 17:20 Partly Cloudy 77 25 67 19.4 71 71 SE 13 20 29.78 1009 10 16 0.00 0.00
5:33 pm 17:33 Mostly Cloudy 75 23.9 66 18.9 74 74 SSE 12 19 29.80 1009 10 16 0.00 0.00
5:53 pm 17:53 Mostly Cloudy 75 23.9 67 19.4 76 76 SE 13 20 29.87 1012 10 16 0.00 0.00
6:35 pm 18:35 Mostly Cloudy 74 23.3 68 20 82 82 SE 15 24 29.79 1009 10 16 0.00 0.00
6:53 pm 18:53 Cloudy 73 22.8 68 20 84 84 SE 14 22 29.87 1011 10 16 0.00 0.00
7:53 pm 19:53 Partly Cloudy 72 22.2 68 20 87 87 SE 13 20 29.89 1012 10 16 0.00 0.00
8:35 pm 20:35 Mostly Cloudy 71 21.7 67 19.4 87 87 SE 16 26 29.84 1011 10 16 0.00 0.00
8:44 pm 20:44 Mostly Cloudy 71 21.7 67 19.4 87 87 SE 14 22 29.85 1011 10 16 0.00 0.00
8:53 pm 20:53 Mostly Cloudy 71 21.7 67 19.4 87 87 SE 14 22 29.92 1013 10 16 0.00 0.00
9:53 pm 21:53 Cloudy 70 21.1 67 19.4 90 90 SE 13 20 29.93 1014 10 16 0.00 0.00
10:53 pm 22:53 Cloudy 70 21.1 67 19.4 90 90 SE 17 28 29.90 1013 10 16 0.00 0.00
11:53 pm 23:53 Cloudy with Light Rain 70 21.1 67 19.4 90 90 SE 15 24 29.91 1013 10 16 0.00 0.00

Powered by AerisWeather